W5CGC Weather Reports


time (UTC)temp
F
wind
direction
speed
knots
gust
knots
rain 1hr
in
rain 24hr
in
rain mn
in
humidity
%
barometer
mb
20260905053045 86 94 0.9 4.3 0.00 0.00 0.00 45 1012.8
20260905051545 86 324 0.0 4.3 0.00 0.00 0.00 45 1012.8
20260905050046 87 70 0.9 2.6 0.00 0.00 0.00 44 1012.8
20260905044544 87 39 0.0 3.5 0.00 0.00 0.00 44 1012.8
20260905043041 88 24 0.0 4.3 0.00 0.00 0.00 43 1012.7
20260905041538 88 11 0.9 6.1 0.00 0.00 0.00 42 1012.7
20260905040049 89 34 1.7 5.2 0.00 0.00 0.00 41 1012.8
20260905034545 89 46 0.9 4.3 0.00 0.00 0.00 40 1012.8
20260905033041 89 41 0.0 2.6 0.00 0.00 0.00 38 1012.8
20260905031538 89 245 0.9 3.5 0.00 0.00 0.00 37 1012.6
20260905030057 89 18 0.0 1.7 0.00 0.00 0.00 37 1012.7
20260905024541 88 115 0.0 1.7 0.00 0.00 0.00 39 1012.4
20260905023047 89 0 0.0 0.0 0.00 0.00 0.00 38 1012.3
20260905021541 90 0 0.0 0.0 0.00 0.00 0.00 37 1011.9
20260905020057 91 0 0.0 0.9 0.00 0.00 0.00 36 1011.7
20260905014544 92 0 0.9 4.3 0.00 0.00 0.00 35 1011.4
20260905013042 92 235 0.0 2.6 0.00 0.00 0.00 35 1011.2
20260905011541 92 0 0.9 6.1 0.00 0.00 0.00 35 1011.2
20260905010048 93 233 0.0 1.7 0.00 0.00 0.00 35 1010.9
20260905004603 94 244 0.9 3.5 0.00 0.00 0.00 34 1010.6
20260905003038 95 271 0.9 3.5 0.00 0.00 0.00 31 1010.5
20260905001544 96 28 0.0 7.8 0.00 0.00 0.00 31 1010.4
20260905000043 96 37 0.0 3.5 0.00 0.00 0.00 30 1010.2
20260904234542 96 23 0.9 4.3 0.00 0.00 0.00 28 1010.3
20260904233051 97 37 1.7 5.2 0.00 0.00 0.00 27 1010.3
20260904231544 97 30 0.9 4.3 0.00 0.00 0.00 27 1010.4
20260904230043 97 221 0.0 4.3 0.00 0.00 0.00 27 1010.3
20260904224549 97 287 1.7 5.2 0.00 0.00 0.00 27 1010.6
20260904223040 97 46 0.0 4.3 0.00 0.00 0.00 28 1010.5
20260904221540 98 227 1.7 4.3 0.00 0.00 0.00 27 1010.7
20260904220044 99 49 0.0 5.2 0.00 0.00 0.00 27 1010.6
20260904214541 99 246 0.0 2.6 0.00 0.00 0.00 27 1010.8
20260904213041 99 299 1.7 5.2 0.00 0.00 0.00 26 1011.0
20260904211545 100 59 0.9 5.2 0.00 0.00 0.00 26 1011.1
20260904210049 100 293 2.6 6.1 0.00 0.00 0.00 26 1011.4
20260904204545 100 26 0.9 5.2 0.00 0.00 0.00 26 1011.5
20260904203043 99 14 1.7 9.6 0.00 0.00 0.00 27 1011.7
20260904201539 99 27 1.7 8.7 0.00 0.00 0.00 28 1012.0
20260904200041 98 34 1.7 6.1 0.00 0.00 0.00 29 1012.3
20260904194543 98 60 1.7 10.4 0.00 0.00 0.00 30 1012.4
20260904193122 98 50 1.7 5.2 0.00 0.00 0.00 31 1012.5
20260904191538 97 11 0.9 6.1 0.00 0.00 0.00 32 1012.7
20260904190040 97 20 1.7 8.7 0.00 0.00 0.00 31 1012.9
20260904184542 97 88 0.9 2.6 0.00 0.00 0.00 32 1013.1
20260904183047 96 284 2.6 9.6 0.00 0.00 0.00 33 1013.4
20260904181546 95 360 1.7 8.7 0.00 0.00 0.00 33 1013.6
20260904180040 95 36 1.7 7.0 0.00 0.00 0.00 33 1013.8
20260904174552 94 42 1.7 7.8 0.00 0.00 0.00 34 1013.8
20260904173043 93 44 1.7 5.2 0.00 0.00 0.00 37 1014.0
20260904171555 93 297 1.7 7.0 0.00 0.00 0.00 38 1014.1
20260904170041 92 131 0.9 2.6 0.00 0.00 0.00 39 1014.3
20260904164548 91 46 0.9 4.3 0.00 0.00 0.00 42 1014.5
20260904163040 90 0 0.9 3.5 0.00 0.00 0.00 45 1014.5
20260904161538 89 115 0.9 7.0 0.00 0.00 0.00 47 1014.5
20260904160042 87 176 0.9 4.3 0.00 0.00 0.00 51 1014.5
20260904154541 86 300 0.9 5.2 0.00 0.00 0.00 53 1014.4
20260904153040 85 0 0.9 5.2 0.00 0.00 0.00 56 1014.4
20260904151543 84 148 0.0 4.3 0.00 0.00 0.00 59 1014.4
20260904150041 83 18 0.9 6.1 0.00 0.00 0.00 61 1014.5
20260904144541 82 70 0.9 6.1 0.00 0.00 0.00 63 1014.5
20260904143045 81 36 0.9 5.2 0.00 0.00 0.00 64 1014.4
20260904141542 81 225 0.9 5.2 0.00 0.00 0.00 65 1014.4
20260904140038 80 0 1.7 4.3 0.00 0.00 0.00 66 1014.3
20260904134546 80 0 0.0 0.9 0.00 0.00 0.00 66 1014.2
20260904133041 79 0 0.9 2.6 0.00 0.00 0.00 67 1014.1
20260904131554 79 0 0.0 0.9 0.00 0.00 0.00 67 1014.0
20260904130042 79 0 0.0 3.5 0.00 0.00 0.00 67 1013.7
20260904124538 78 46 0.0 3.5 0.00 0.00 0.00 68 1013.7
20260904123041 78 64 0.0 4.3 0.00 0.00 0.00 68 1013.6
20260904121540 78 0 0.0 0.9 0.00 0.00 0.00 67 1013.6
20260904120048 78 0 0.0 2.6 0.00 0.00 0.00 67 1013.4
20260904114537 78 0 0.0 0.0 0.00 0.00 0.00 67 1013.3
20260904113041 79 0 0.0 0.0 0.00 0.00 0.00 66 1013.3
20260904111544 79 0 0.0 0.0 0.00 0.00 0.00 66 1013.2
20260904110040 79 0 0.0 3.5 0.00 0.00 0.00 66 1013.1
20260904104547 79 0 0.0 1.7 0.00 0.00 0.00 66 1013.0
20260904103050 79 0 0.0 6.1 0.00 0.00 0.00 66 1013.0
20260904101541 79 0 0.0 2.6 0.00 0.00 0.00 66 1012.8
20260904100042 79 0 0.0 4.3 0.00 0.00 0.00 66 1012.6
20260904094541 79 86 0.0 2.6 0.00 0.00 0.00 65 1012.6
20260904093045 79 43 0.0 3.5 0.00 0.00 0.00 65 1012.7
20260904091544 79 0 0.0 3.5 0.00 0.00 0.00 65 1012.7
20260904090042 79 146 0.0 1.7 0.00 0.00 0.00 64 1012.7
20260904084539 79 59 0.0 1.7 0.00 0.00 0.00 64 1012.6
20260904083103 79 79 0.0 1.7 0.00 0.00 0.00 64 1012.6
20260904081543 79 0 0.0 2.6 0.00 0.00 0.00 63 1012.7
20260904080043 79 0 0.0 3.5 0.00 0.00 0.00 63 1012.5
20260904074559 79 65 0.0 1.7 0.00 0.00 0.00 62 1012.7
20260904073040 80 0 0.0 2.6 0.00 0.00 0.00 62 1012.7
20260904071544 80 34 0.0 4.3 0.00 0.00 0.00 61 1012.8
20260904070042 80 0 0.9 4.3 0.00 0.00 0.00 61 1012.8
20260904064541 80 89 0.9 5.2 0.00 0.00 0.00 60 1012.9
20260904063047 80 44 0.9 7.8 0.00 0.00 0.00 60 1013.0
20260904061541 80 39 0.9 3.5 0.00 0.00 0.00 59 1013.1
20260904060041 80 37 0.0 5.2 0.00 0.00 0.00 58 1013.2
20260904054545 80 0 0.0 2.6 0.00 0.00 0.00 57 1013.0